Location: Newark
(44.5869°N, 123.1150°W)
Time: 20:43:10
(UTC+00:00)

N. Korean satellite - Pass Details

Date: 26 September 2020
Orbit: 452 x 505 km, 97.2° (Epoch: 28 October)

Event Time Altitude Azimuth Distance (km) Brightness Sun altitude
Rises 12:44:06 0° 31° (NNE) 2,589 11.0 -15.1°
Reaches altitude 10° 12:47:04 10° 58° (ENE) 1,688 10.5 -14.6°
Maximum altitude 12:49:01 14° 91° (E) 1,447 10.2 -14.3°
Drops below altitude 10° 12:50:57 10° 123° (ESE) 1,663 9.9 -13.9°
Sets 12:53:49 0° 150° (SSE) 2,522 10.5 -13.4°
